Location: Newark
(47.5833°N, 8.1500°E)
Time: 14:40:48
(UTC+00:00)

Courier 1B - All Passes

Search period start: 31 October 2020 00:00
Search period end: 10 November 2020 00:00
Orbit: 963 x 1209 km, 28.3° (Epoch: 30 October)

Date Brightness Start Highest point End Pass type
(mag) Time Alt. Az. Time Alt. Az. Time Alt. Az.
31 Oct - 10:20:47 10° SSW 10:23:36 13° S 10:26:23 10° SSE daylight
31 Oct - 12:14:07 10° SSW 12:16:14 12° S 12:18:21 10° S daylight
01 Nov - 09:27:38 10° SSW 09:30:11 12° S 09:32:42 10° SSE daylight
01 Nov - 11:20:06 10° SSW 11:22:50 13° S 11:25:33 10° SSE daylight
02 Nov - 08:34:49 10° S 08:36:46 11° SSE 08:38:41 10° SSE daylight
02 Nov - 10:26:20 10° SSW 10:29:26 14° S 10:32:29 10° SSE daylight
03 Nov - 09:32:43 10° SSW 09:36:00 14° S 09:39:12 10° SSE daylight
03 Nov - 11:27:04 10° SSW 11:28:38 11° SSW 11:30:11 10° S daylight
04 Nov - 08:39:17 10° SSW 08:42:33 14° S 08:45:46 10° SSE daylight
04 Nov - 10:32:34 10° SSW 10:35:13 13° S 10:37:51 10° SSE daylight
05 Nov - 07:46:00 10° SSW 07:49:06 13° S 07:52:08 10° SE daylight
05 Nov - 09:38:32 10° SW 09:41:49 14° S 09:45:01 10° SSE daylight
06 Nov - 06:53:00 10° S 06:55:37 12° SSE 06:58:12 10° SE daylight
06 Nov - 08:44:43 10° SW 08:48:22 15° S 08:51:55 10° SSE daylight
06 Nov - 10:40:56 10° SSW 10:40:59 10° SSW 10:41:01 10° SSW daylight
07 Nov - 06:00:36 10° S 06:02:08 11° SSE 06:03:39 10° SSE daylight
07 Nov - 07:51:03 10° SSW 07:54:53 15° S 07:58:37 10° SE daylight
07 Nov - 09:45:04 10° SW 09:47:35 12° SSW 09:50:04 10° S daylight
08 Nov - 06:57:33 10° SSW 07:01:24 15° S 07:05:08 10° SE daylight
08 Nov - 08:50:45 10° SW 08:54:09 14° S 08:57:27 10° SSE daylight
09 Nov - 06:04:13 10° SSW 06:07:52 14° S 06:11:26 10° SE daylight
09 Nov - 07:56:44 10° SW 08:00:40 15° S 08:04:29 10° SSE daylight
